Voltar ao catálogo

JILIN-01 GAOFEN 2A

AtivoCiênciaSSO
NORAD 44777·PAYLOAD·🇨🇳 China

Lançado Nov 13, 2019 de Jiuquan Satellite Launch Center

Loading…

Próximas Passagens (próximas 24 horas)

TLE

AtualizadoSource: Space-Track

Época: Sep 14, 2026, 12:28 UTC

1 44777U 19075A   26257.52002803  .00013159  00000-0  31566-3 0  9996
2 44777  97.4922 343.5181 0007136 117.2402 242.9573 15.41492440378636

Acompanhe JILIN-01 GAOFEN 2A em tempo real com AllMySat

Download on the App Store